Location: Ayer Observatory
(42.2600°N, 71.0700°W)
Time: 18:40:18
(UTC-04:00)

XW-2A - Pass Details

Date: 28 July 2019
Orbit: 432 x 448 km, 97.3° (Epoch: 25 August)

Event Time Altitude Azimuth Distance (km) Brightness Sun altitude
Rises 21:37:57 0° 207° (SSW) 2,395 ? -14.4°
Reaches altitude 10° 21:40:42 10° 234° (SW) 1,537 ? -14.8°
Maximum altitude 21:42:31 14° 267° (W) 1,315 ? -15.1°
Drops below altitude 10° 21:44:22 10° 301° (WNW) 1,548 ? -15.3°
Sets 21:47:09 0° 328° (NNW) 2,427 ? -15.7°
